TimeCDT,TemperatureF,Dew PointF,Humidity,Sea Level PressureIn,VisibilityMPH,Wind Direction,Wind SpeedMPH,Gust SpeedMPH,PrecipitationIn,Events,Conditions,WindDirDegrees,DateUTC
12:15 AM,68.0,60.8,78,30.00,10.0,SW,8.1,-,N/A,,Clear,230,2013-07-05 05:15:00
12:35 AM,68.0,60.8,78,30.00,10.0,SW,8.1,-,N/A,,Clear,230,2013-07-05 05:35:00
12:55 AM,66.2,62.6,88,30.00,10.0,SW,6.9,-,N/A,,Clear,230,2013-07-05 05:55:00
1:15 AM,66.2,62.6,88,30.00,9.0,SW,5.8,-,N/A,,Clear,230,2013-07-05 06:15:00
1:35 AM,66.2,62.6,88,30.01,8.0,SW,5.8,-,N/A,,Clear,230,2013-07-05 06:35:00
1:55 AM,66.2,62.6,88,30.01,8.0,SW,5.8,-,N/A,,Clear,230,2013-07-05 06:55:00
2:15 AM,66.2,62.6,88,30.01,7.0,SW,4.6,-,N/A,,Clear,230,2013-07-05 07:15:00
2:35 AM,66.2,62.6,88,30.00,7.0,SW,3.5,-,N/A,,Clear,230,2013-07-05 07:35:00
2:55 AM,66.2,62.6,88,30.00,6.0,SW,4.6,-,N/A,,Clear,220,2013-07-05 07:55:00
3:15 AM,68.0,62.6,83,30.00,5.0,SW,4.6,-,N/A,,Clear,230,2013-07-05 08:15:00
3:35 AM,64.4,62.6,94,30.00,5.0,WSW,3.5,-,N/A,,Clear,240,2013-07-05 08:35:00
3:55 AM,64.4,62.6,94,30.00,5.0,WSW,4.6,-,N/A,,Clear,240,2013-07-05 08:55:00
4:15 AM,64.4,62.6,94,29.99,5.0,WSW,4.6,-,N/A,,Clear,240,2013-07-05 09:15:00
4:35 AM,64.4,62.6,94,30.00,3.0,West,3.5,-,N/A,,Clear,270,2013-07-05 09:35:00
4:55 AM,62.6,62.6,100,30.00,1.2,Calm,Calm,-,N/A,,Clear,0,2013-07-05 09:55:00
5:15 AM,60.8,60.8,100,30.00,0.8,WSW,3.5,-,N/A,,Unknown,250,2013-07-05 10:15:00
5:35 AM,64.4,62.6,94,30.01,1.0,West,4.6,-,N/A,,Clear,270,2013-07-05 10:35:00
5:55 AM,64.4,62.6,94,30.01,3.0,WSW,8.1,-,N/A,,Clear,240,2013-07-05 10:55:00
6:15 AM,66.2,62.6,88,30.01,4.0,WSW,6.9,-,N/A,,Clear,250,2013-07-05 11:15:00
6:35 AM,66.2,62.6,88,30.01,4.0,WSW,6.9,-,N/A,,Clear,240,2013-07-05 11:35:00
6:55 AM,68.0,64.4,88,30.01,4.0,WSW,5.8,-,N/A,,Clear,240,2013-07-05 11:55:00
7:15 AM,68.0,64.4,88,30.02,5.0,WSW,8.1,-,N/A,,Clear,240,2013-07-05 12:15:00
7:35 AM,69.8,64.4,83,30.02,5.0,SW,8.1,-,N/A,,Clear,230,2013-07-05 12:35:00
7:55 AM,69.8,64.4,83,30.03,7.0,WSW,6.9,-,N/A,,Clear,240,2013-07-05 12:55:00
8:15 AM,71.6,64.4,78,30.03,8.0,WSW,8.1,-,N/A,,Clear,240,2013-07-05 13:15:00
8:35 AM,73.4,64.4,73,30.02,9.0,SW,5.8,-,N/A,,Clear,230,2013-07-05 13:35:00
8:55 AM,73.4,64.4,73,30.03,9.0,West,5.8,-,N/A,,Clear,260,2013-07-05 13:55:00
9:15 AM,75.2,64.4,69,30.03,10.0,West,4.6,-,N/A,,Clear,260,2013-07-05 14:15:00
9:35 AM,77.0,64.4,65,30.02,10.0,SW,5.8,-,N/A,,Clear,230,2013-07-05 14:35:00
9:55 AM,77.0,62.6,61,30.02,10.0,WSW,8.1,-,N/A,,Clear,250,2013-07-05 14:55:00
10:15 AM,78.8,62.6,57,30.02,10.0,SW,10.4,-,N/A,,Clear,220,2013-07-05 15:15:00
10:35 AM,78.8,62.6,57,30.02,10.0,WSW,8.1,-,N/A,,Clear,240,2013-07-05 15:35:00
10:55 AM,80.6,64.4,58,30.01,10.0,WSW,8.1,-,N/A,,Clear,240,2013-07-05 15:55:00
11:15 AM,80.6,64.4,58,30.01,10.0,SSW,8.1,-,N/A,,Clear,200,2013-07-05 16:15:00
11:35 AM,80.6,64.4,58,30.01,9.0,SW,9.2,-,N/A,,Clear,220,2013-07-05 16:35:00
11:55 AM,80.6,64.4,58,30.00,9.0,South,5.8,-,N/A,,Clear,190,2013-07-05 16:55:00
12:15 PM,80.6,64.4,58,30.00,9.0,SSW,11.5,-,N/A,,Clear,200,2013-07-05 17:15:00
12:35 PM,82.4,64.4,54,30.00,10.0,SSW,9.2,16.1,N/A,,Clear,210,2013-07-05 17:35:00
12:55 PM,82.4,64.4,54,30.00,10.0,SSW,9.2,-,N/A,,Clear,210,2013-07-05 17:55:00
1:15 PM,82.4,62.6,51,30.00,10.0,SSW,12.7,17.3,N/A,,Clear,210,2013-07-05 18:15:00
1:35 PM,82.4,62.6,51,29.99,10.0,SSW,11.5,17.3,N/A,,Clear,200,2013-07-05 18:35:00
1:55 PM,82.4,60.8,48,29.98,10.0,SSW,11.5,18.4,N/A,,Clear,200,2013-07-05 18:55:00
2:15 PM,82.4,60.8,48,29.98,10.0,SSW,16.1,20.7,N/A,,Clear,200,2013-07-05 19:15:00
2:35 PM,84.2,59.0,42,29.98,8.0,SSW,16.1,23.0,N/A,,Clear,210,2013-07-05 19:35:00
2:55 PM,84.2,59.0,42,29.97,10.0,SSW,11.5,21.9,N/A,,Clear,210,2013-07-05 19:55:00
3:15 PM,84.2,57.2,40,29.97,10.0,SSW,17.3,26.5,N/A,,Clear,200,2013-07-05 20:15:00
3:35 PM,84.2,59.0,42,29.96,10.0,SSW,12.7,-,N/A,,Clear,200,2013-07-05 20:35:00
3:55 PM,82.4,59.0,45,29.96,10.0,SSW,13.8,21.9,N/A,,Partly Cloudy,210,2013-07-05 20:55:00
4:15 PM,82.4,64.4,54,29.96,9.0,South,11.5,-,N/A,,Partly Cloudy,190,2013-07-05 21:15:00
4:35 PM,84.2,60.8,45,29.95,10.0,South,12.7,19.6,N/A,,Clear,190,2013-07-05 21:35:00
4:55 PM,84.2,60.8,45,29.95,10.0,SW,13.8,20.7,N/A,,Clear,220,2013-07-05 21:55:00
5:15 PM,82.4,60.8,48,29.95,10.0,SSW,13.8,20.7,N/A,,Partly Cloudy,210,2013-07-05 22:15:00
5:35 PM,82.4,62.6,51,29.94,9.0,SSW,15.0,18.4,N/A,,Partly Cloudy,200,2013-07-05 22:35:00
5:55 PM,80.6,64.4,58,29.94,9.0,South,12.7,20.7,N/A,,Scattered Clouds,190,2013-07-05 22:55:00
6:15 PM,80.6,64.4,58,29.94,10.0,South,17.3,23.0,N/A,,Scattered Clouds,190,2013-07-05 23:15:00
6:35 PM,80.6,64.4,58,29.95,10.0,SSW,15.0,19.6,N/A,,Partly Cloudy,210,2013-07-05 23:35:00
6:55 PM,78.8,64.4,61,29.95,10.0,SSW,11.5,18.4,N/A,,Clear,200,2013-07-05 23:55:00
7:15 PM,78.8,62.6,57,29.95,10.0,SSW,12.7,18.4,N/A,,Clear,200,2013-07-06 00:15:00
7:35 PM,77.0,62.6,61,29.95,10.0,SSW,13.8,-,N/A,,Clear,210,2013-07-06 00:35:00
7:55 PM,77.0,62.6,61,29.95,10.0,SSW,11.5,18.4,N/A,,Clear,200,2013-07-06 00:55:00
8:15 PM,75.2,62.6,65,29.95,10.0,South,11.5,-,N/A,,Clear,190,2013-07-06 01:15:00
8:35 PM,75.2,62.6,65,29.95,10.0,SSW,9.2,17.3,N/A,,Clear,200,2013-07-06 01:35:00
8:55 PM,75.2,62.6,65,29.96,10.0,SSW,8.1,-,N/A,,Clear,200,2013-07-06 01:55:00
9:15 PM,73.4,62.6,69,29.96,10.0,SSW,8.1,-,N/A,,Clear,210,2013-07-06 02:15:00
9:55 PM,73.4,60.8,65,29.96,10.0,SSW,9.2,-,N/A,,Clear,210,2013-07-06 02:55:00
10:15 PM,73.4,60.8,65,29.96,10.0,SW,12.7,16.1,N/A,,Clear,220,2013-07-06 03:15:00
10:35 PM,73.4,60.8,65,29.96,10.0,SSW,10.4,16.1,N/A,,Clear,210,2013-07-06 03:35:00
10:55 PM,73.4,60.8,65,29.97,10.0,SW,11.5,-,N/A,,Clear,220,2013-07-06 03:55:00
11:15 PM,73.4,60.8,65,29.97,10.0,SSW,10.4,-,N/A,,Clear,210,2013-07-06 04:15:00
11:35 PM,73.4,60.8,65,29.97,10.0,SSW,11.5,16.1,N/A,,Clear,210,2013-07-06 04:35:00
11:55 PM,73.4,60.8,65,29.97,10.0,SW,11.5,17.3,N/A,,Clear,220,2013-07-06 04:55:00